STARLINK-34970

Last updated on Tue Sep 16 2025 00:02:08 GMT+0000 (Coordinated Universal Time)

1 65450U 25194S 25257.89179734 .00051396 00000+0 29826-3 0 9993 2 65450 97.5971 109.2134 0002967 14.7950 345.3402 15.78396843 3075
UTC large
Height (km)
Speed (km/s)
/
Latitude / Longitude
Inclination (degrees)
Orbital Period (minutes)
Azimuth
Elevation
Range (km)
Doppler Factor

Next 0 passes for location: London (51.5072 / 0.1276)

Sorry there are no passes over London.